This is the latest recevied weather packets stored in our database for station/object KY4GW. If no packets are shown the sender has not sent any weather packets the latest 10 day(s).
| Time | Temp. | Humidity | Pressure | Rain* | Wind** | Luminosity | Snow |
|---|---|---|---|---|---|---|---|
| 1777755136 | 11.67° C | 48% | 1019.3 hPa | 0 mm | - | 206 W/m² | - |
| 1777754834 | 11.67° C | 50% | 1019.3 hPa | 0 mm | - | 167 W/m² | - |
| 1777754532 | 11.67° C | 51% | 1019.3 hPa | 0 mm | - | 160 W/m² | - |
| 1777754229 | 11.67° C | 50% | 1019.3 hPa | 0 mm | - | 191 W/m² | - |
| 1777753927 | 11.67° C | 50% | 1019.3 hPa | 0 mm | - | 197 W/m² | - |
| 1777753620 | 11.67° C | 48% | 1019.6 hPa | 0 mm | - | 245 W/m² | - |
| 1777753319 | 11.67° C | 50% | 1019.6 hPa | 0 mm | - | 223 W/m² | - |
| 1777753016 | 11.67° C | 50% | 1019.6 hPa | 0 mm | - | 170 W/m² | - |
| 1777752712 | 11.67° C | 51% | 1019.6 hPa | 0 mm | - | 129 W/m² | - |
| 1777752408 | 11.67° C | 52% | 1019.6 hPa | 0 mm | - | 150 W/m² | - |
| 1777752105 | 11.67° C | 51% | 1019.6 hPa | 0 mm | - | 107 W/m² | - |
| 1777751803 | 12.22° C | 51% | 1019.6 hPa | 0 mm | - | 121 W/m² | - |
| 1777751499 | 13.33° C | 51% | 1019.6 hPa | 0 mm | - | 231 W/m² | - |
| 1777751196 | 13.33° C | 54% | 1019.6 hPa | 0 mm | - | 345 W/m² | - |
| 1777750893 | 13.33° C | 49% | 1019.6 hPa | 0 mm | - | 331 W/m² | - |
| 1777750589 | 13.33° C | 51% | 1019.6 hPa | 0 mm | - | 351 W/m² | - |
| 1777750286 | 12.78° C | 46% | 1019.6 hPa | 0 mm | - | 309 W/m² | - |
| 1777749981 | 12.78° C | 48% | 1019.6 hPa | 0 mm | - | 340 W/m² | - |
| 1777749679 | 12.78° C | 49% | 1019.6 hPa | 0 mm | - | 289 W/m² | - |
| 1777749376 | 12.22° C | 49% | 1019.6 hPa | 0 mm | - | 316 W/m² | - |
| 1777749073 | 12.78° C | 52% | 1019.6 hPa | 0 mm | - | 306 W/m² | - |
| 1777748771 | 12.22° C | 48% | 1019.6 hPa | 0 mm | - | 327 W/m² | - |
| 1777748469 | 12.22° C | 47% | 1019.6 hPa | 0 mm | - | 314 W/m² | - |
| 1777748163 | 12.78° C | 51% | 1020.1 hPa | 0 mm | - | 295 W/m² | - |
| 1777747860 | 12.22° C | 49% | 1020.1 hPa | 0 mm | - | 380 W/m² | - |
* Rain latest hour (hover to see other rain measurements)
** Current wind speed in m/s (hover to see current wind gust speed)